Galesburg, IL

12:21 AM CDT on March 24, 2017 (GMT -0500)
Galesburg Municipal

Weather History for KGBG - July, 2013

Change the Weather History Date:

Sunday, July 28, 2013

  Actual Average Record
Temperature  
Mean Temperature 61 °F -  
Max Temperature 71 °F 83 °F 102 °F (1983)
Min Temperature 51 °F 64 °F 51 °F (2004)
Degree Days  
Heating Degree Days 4    
Growing Degree Days 11 (Base 50)    
Moisture  
Dew Point 50 °F    
Average Humidity 70    
Maximum Humidity 95    
Minimum Humidity 49    
Precipitation  
Precipitation 0.01 in - - ()
Sea Level Pressure  
Sea Level Pressure 30.00 in    
Wind  
Wind Speed 6 mph (West)    
Max Wind Speed 16 mph    
Max Gust Speed 20 mph    
Visibility 10 miles    
Events      
Averages and records for this station are not official NWS values.
T = Trace of Precipitation, MM = Missing Value Source: NWS Daily Summary

Daily Weather History Graph

Daily Weather History Graph

Search for Another Location

Airport or City:

Trip Planner

Search our weather history database for the weather conditions in past years. The results will help you decide how hot, cold, wet, or windy it might be!

Date:

Astronomy

Jul. 28, 2013 Rise Set
Actual Time 5:54 AM CDT 8:21 PM CDT
Civil Twilight 5:23 AM CDT 8:52 PM CDT
Nautical Twilight 4:44 AM CDT 9:31 PM CDT
Astronomical Twilight 4:00 AM CDT 10:14 PM CDT
Moon 11:39 PM CDT (7/28) 12:40 PM CDT (7/28)
Length of Visible Light 15h 29m
Length of Day
14h 27m
Waning Gibbous, 60% of the Moon is Illuminated
Jul 28
Waning Gibbous
Jul 29
Last Quarter
Aug 6
New
Aug 14
First Quarter
Aug 20
Full

Hourly Weather History & Observations

Time (CDT) Temp. Dew Point Humidity Pressure Visibility Wind Dir Wind Speed Gust Speed Precip Events Conditions
12:15 AM 53.2 °F 48.2 °F 83% 29.99 in 10.0 mi Calm Calm - N/A   Overcast
12:35 AM 52.7 °F 48.2 °F 85% 29.99 in 10.0 mi Calm Calm - N/A   Scattered Clouds
12:55 AM 51.1 °F 48.7 °F 92% 29.98 in 10.0 mi SW 3.5 mph - N/A   Clear
1:15 AM 51.3 °F 48.2 °F 89% 29.97 in 10.0 mi Calm Calm - N/A   Clear
1:35 AM 51.1 °F 48.0 °F 89% 29.96 in 10.0 mi SSW 3.5 mph - N/A   Mostly Cloudy
1:55 AM 51.6 °F 48.4 °F 89% 29.96 in 10.0 mi SSW 3.5 mph - N/A   Overcast
2:15 AM 52.2 °F 48.9 °F 89% 29.96 in 10.0 mi SW 3.5 mph - N/A   Overcast
2:35 AM 52.0 °F 48.7 °F 89% 29.96 in 10.0 mi SSW 4.6 mph - N/A   Overcast
2:55 AM 52.9 °F 48.6 °F 85% 29.96 in 10.0 mi SW 5.8 mph - N/A   Overcast
3:15 AM 52.7 °F 47.7 °F 83% 29.95 in 10.0 mi SW 5.8 mph - N/A   Mostly Cloudy
3:35 AM 52.9 °F 47.3 °F 81% 29.95 in 10.0 mi SW 6.9 mph - N/A   Scattered Clouds
3:55 AM 52.2 °F 46.8 °F 82% 29.95 in 10.0 mi SW 6.9 mph - N/A   Clear
4:15 AM 52.7 °F 46.6 °F 80% 29.95 in 10.0 mi SW 8.1 mph - N/A   Clear
4:35 AM 53.2 °F 46.2 °F 77% 29.95 in 10.0 mi SW 8.1 mph - N/A   Clear
4:55 AM 53.2 °F 46.0 °F 77% 29.95 in 10.0 mi SW 8.1 mph - N/A   Clear
5:15 AM 52.0 °F 46.0 °F 80% 29.95 in 10.0 mi SW 8.1 mph - N/A   Clear
5:35 AM 51.4 °F 46.0 °F 82% 29.95 in 10.0 mi SW 9.2 mph - N/A   Clear
5:55 AM 51.3 °F 46.0 °F 82% 29.95 in 10.0 mi SW 9.2 mph - N/A   Clear
6:15 AM 51.8 °F 45.9 °F 80% 29.96 in 10.0 mi WSW 5.8 mph - N/A   Clear
6:35 AM 51.3 °F 46.4 °F 83% 29.97 in 10.0 mi WSW 5.8 mph - N/A   Clear
6:55 AM 52.3 °F 46.4 °F 80% 29.97 in 10.0 mi West 6.9 mph - N/A   Clear
7:15 AM 53.2 °F 46.9 °F 79% 29.98 in 10.0 mi WSW 8.1 mph - N/A   Clear
7:35 AM 55.9 °F 48.0 °F 75% 29.99 in 10.0 mi West 9.2 mph - N/A   Clear
7:55 AM 57.2 °F 48.9 °F 74% 29.99 in 10.0 mi West 10.4 mph - N/A   Clear
8:15 AM 58.1 °F 48.7 °F 71% 30.00 in 10.0 mi West 10.4 mph - N/A   Clear
8:35 AM 59.2 °F 49.5 °F 70% 30.00 in 10.0 mi West 9.2 mph - N/A   Clear
8:55 AM 59.9 °F 49.5 °F 68% 30.01 in 10.0 mi WNW 11.5 mph - N/A   Clear
9:15 AM 61.0 °F 50.4 °F 68% 30.00 in 10.0 mi West 10.4 mph 16.1 mph N/A   Clear
9:35 AM 61.9 °F 50.4 °F 66% 30.00 in 10.0 mi West 10.4 mph - N/A   Clear
9:55 AM 63.0 °F 50.0 °F 63% 30.00 in 10.0 mi WNW 9.2 mph - N/A   Clear
10:15 AM 64.2 °F 49.6 °F 59% 30.00 in 10.0 mi West 10.4 mph 17.3 mph N/A   Scattered Clouds
10:35 AM 64.6 °F 49.5 °F 58% 30.00 in 10.0 mi NW 11.5 mph - N/A   Scattered Clouds
10:55 AM 65.5 °F 50.7 °F 59% 30.00 in 10.0 mi West 11.5 mph 16.1 mph 0.01 in   Mostly Cloudy
11:15 AM 66.0 °F 50.0 °F 56% 30.00 in 10.0 mi West 10.4 mph 16.1 mph N/A   Scattered Clouds
11:35 AM 66.7 °F 50.5 °F 56% 30.00 in 10.0 mi WNW 11.5 mph - N/A   Scattered Clouds
11:55 AM 67.1 °F 49.5 °F 53% 30.00 in 10.0 mi West 13.8 mph 19.6 mph N/A   Scattered Clouds
12:15 PM 67.8 °F 50.5 °F 54% 30.00 in 10.0 mi West 10.4 mph 17.3 mph N/A   Mostly Cloudy
12:35 PM 68.0 °F 50.5 °F 54% 30.00 in 10.0 mi West 13.8 mph 19.6 mph N/A   Scattered Clouds
12:55 PM 68.4 °F 50.2 °F 52% 30.00 in 10.0 mi WNW 16.1 mph 19.6 mph N/A   Scattered Clouds
1:15 PM 69.1 °F 50.7 °F 52% 30.00 in 10.0 mi West 12.7 mph 18.4 mph N/A   Scattered Clouds
1:35 PM 70.0 °F 50.2 °F 49% 30.00 in 10.0 mi West 15.0 mph 19.6 mph N/A   Scattered Clouds
1:55 PM 69.8 °F 50.5 °F 50% 30.00 in 10.0 mi West 10.4 mph 17.3 mph N/A   Scattered Clouds
2:15 PM 70.2 °F 51.4 °F 51% 30.00 in 10.0 mi WNW 12.7 mph 17.3 mph N/A   Mostly Cloudy
2:35 PM 70.2 °F 51.6 °F 52% 30.00 in 10.0 mi WNW 12.7 mph 18.4 mph N/A   Mostly Cloudy
2:55 PM 70.2 °F 51.3 °F 51% 30.00 in 10.0 mi WNW 11.5 mph 18.4 mph N/A   Mostly Cloudy
3:15 PM 71.4 °F 52.0 °F 50% 30.00 in 10.0 mi WNW 11.5 mph 19.6 mph N/A   Mostly Cloudy
3:35 PM 70.7 °F 51.3 °F 50% 30.00 in 10.0 mi West 9.2 mph - N/A   Scattered Clouds
3:55 PM 70.9 °F 51.4 °F 50% 30.00 in 10.0 mi WNW 11.5 mph 16.1 mph N/A   Scattered Clouds
4:15 PM 70.7 °F 52.0 °F 51% 30.00 in 10.0 mi WNW 10.4 mph - N/A   Mostly Cloudy
4:35 PM 70.9 °F 51.1 °F 49% 30.00 in 10.0 mi NW 9.2 mph - N/A   Scattered Clouds
4:55 PM 70.2 °F 51.1 °F 51% 30.01 in 10.0 mi NW 8.1 mph - N/A   Scattered Clouds
5:15 PM 69.1 °F 50.9 °F 52% 30.01 in 10.0 mi NW 8.1 mph - N/A   Mostly Cloudy
5:35 PM 68.4 °F 50.4 °F 53% 30.02 in 10.0 mi WNW 10.4 mph - N/A   Mostly Cloudy
5:55 PM 70.0 °F 50.7 °F 50% 30.02 in 10.0 mi NW 8.1 mph - N/A   Scattered Clouds
6:15 PM 70.0 °F 50.7 °F 50% 30.03 in 10.0 mi WNW 8.1 mph - N/A   Scattered Clouds
6:35 PM 69.4 °F 50.0 °F 50% 30.03 in 10.0 mi NW 9.2 mph - N/A   Scattered Clouds
6:55 PM 68.5 °F 50.4 °F 52% 30.03 in 10.0 mi NW 6.9 mph - N/A   Scattered Clouds
7:15 PM 66.9 °F 50.5 °F 56% 30.03 in 10.0 mi NW 4.6 mph - N/A   Clear
7:35 PM 66.6 °F 51.3 °F 58% 30.03 in 10.0 mi NNW 4.6 mph - N/A   Clear
7:55 PM 65.5 °F 52.2 °F 62% 30.04 in 10.0 mi Calm Calm - N/A   Clear
8:15 PM 64.6 °F 52.2 °F 64% 30.04 in 10.0 mi Calm Calm - N/A   Clear
8:35 PM 60.8 °F 54.5 °F 80% 30.04 in 10.0 mi Calm Calm - N/A   Clear
8:55 PM 59.0 °F 54.7 °F 86% 30.04 in 10.0 mi Calm Calm - N/A   Clear
9:15 PM 57.9 °F 54.0 °F 87% 30.05 in 10.0 mi Calm Calm - N/A   Clear
9:35 PM 57.2 °F 53.6 °F 88% 30.06 in 10.0 mi Calm Calm - N/A   Clear
9:55 PM 56.3 °F 54.3 °F 93% 30.07 in 10.0 mi Calm Calm - N/A   Clear
10:15 PM 55.4 °F 53.4 °F 93% 30.07 in 10.0 mi Calm Calm - N/A   Clear
10:35 PM 54.0 °F 52.7 °F 95% 30.07 in 10.0 mi Calm Calm - N/A   Clear
10:55 PM 54.9 °F 53.1 °F 94% 30.07 in 10.0 mi Calm Calm - N/A   Scattered Clouds
11:15 PM 55.4 °F 53.6 °F 94% 30.07 in 10.0 mi Calm Calm - N/A   Overcast
11:35 PM 54.7 °F 53.2 °F 95% 30.07 in 10.0 mi Calm Calm - N/A   Mostly Cloudy
11:55 PM 54.5 °F 53.1 °F 95% 30.07 in 10.0 mi Calm Calm - N/A   Mostly Cloudy